Regional Weather Roundup
Issued by NWS

Home | Current Version | Previous Version | Text Only | Print | Product List | Glossary Off
Versions: 1 2 3 4 5 6 7 8 9 10 11 12 13 14 15 16 17 18 19 20 21 22 23 24 25 26 27 28 29 30 31 32 33 34 35 36 37 38 39 40 41 42 43 44 45 46 47 48 49 50

000
ASUS43 KMKX 280500
RWRWI

WISCONSIN REGIONAL WEATHER ROUNDUP
NATIONAL WEATHER SERVICE MILWAUKEE/SULLIVAN WI
1200 AM CDT FRI JUL 28 2017

NOTE: "FAIR" INDICATES FEW OR NO CLOUDS BELOW 12,000 FEET WITH NO
SIGNIFICANT WEATHER AND/OR OBSTRUCTIONS TO VISIBILITY.

WIZ001-002-006>008-014>016-023>028-280600-
NORTHWEST WISCONSIN

CITY           SKY/WX    TMP DP  RH WIND       PRES   REMARKS
SUPERIOR ARPT  NOT AVBL
ASHLAND        CLEAR     55  55 100 CALM      30.09S FOG
HAYWARD        CLEAR     59  56  89 N3        30.08S
SIREN          CLEAR     61  57  87 CALM      30.06S
CUMBERLAND     CLEAR     63  55  77 CALM      30.07S
RICE LAKE      CLEAR     61  58  91 CALM      30.07S
CHETEK         CLEAR     67  59  74 MISG      30.05S
LADYSMITH      CLEAR     64  59  85 NE5       30.08R
EAU CLAIRE     NOT AVBL
MENOMONIE      CLEAR     68  60  76 N3        30.04S
NEW RICHMOND   CLEAR     66  58  75 E3        30.06S
OSCEOLA        CLEAR     69  60  73 CALM      30.08S
$$

WIZ003>005-009-010-017-018-280600-
NORTH CENTRAL WISCONSIN

CITY           SKY/WX    TMP DP  RH WIND       PRES   REMARKS
MANITOWISH WTR PTCLDY    55  55 100 CALM      30.10S
ARBOR VITAE    CLEAR     59  56  89 CALM      30.10R
WOODRUFF       CLEAR     59  56  89 CALM      30.10R
RHINELANDER    CLEAR     61  57  87 NE3       30.10R
EAGLE RIVER    CLEAR     55  54  97 CALM      30.09S
LAND O LAKES   CLEAR     52  52 100 CALM      30.12R
PHILLIPS       CLEAR     61  60  97 CALM      30.09R
TOMAHAWK         N/A     57  55  94 CALM      30.08S
MEDFORD        CLEAR     60  58  91 NE5       30.07R
MERRILL        CLEAR     61  59  94 CALM      30.07S
$$

WIZ029-030-035-036-043>047-280600-
CENTRAL WISCONSIN

CITY           SKY/WX    TMP DP  RH WIND       PRES   REMARKS
WAUSAU         PTCLDY    63  61  93 E5        30.05R
MOSINEE        PTCLDY    63  59  88 E6        30.07S
MARSHFIELD     CLOUDY    67  63  87 SE6       30.04S
STEVENS POINT  MOCLDY    65  58  78 NE9       30.06R
WAUPACA        CLOUDY    70  60  70 N7        30.05R
WAUTOMA        MOCLDY    62  60  93 CALM      30.04R
WISC RAPIDS    LGT RAIN  69  62  78 CALM      30.06R
CAMP DOUGLAS   NOT AVBL
$$

WIZ011>013-019>022-031-037>040-048>050-280600-
NORTHEAST WISCONSIN

CITY           SKY/WX    TMP DP  RH WIND       PRES   REMARKS
ANTIGO         CLEAR     58  57  97 NE3       30.08R
SHAWANO        CLOUDY    69  56  62 E6        30.05S
OCONTO         CLOUDY    62  55  76 N5        30.04R
STURGEON BAY     N/A     62  55  77 N6        30.04R
GREEN BAY      MOCLDY    66  59  78 CALM      30.03R
MANITOWOC      NOT AVBL
APPLETON       CLOUDY    68  50  52 NE7       30.03R
CLINTONVILLE   CLOUDY   N/A N/A N/A CALM      30.05S
OSHKOSH        PTCLDY    69  55  60 NE10      30.03R
$$

WIZ032>034-041-042-053>061-280600-
SOUTHWEST WISCONSIN

CITY           SKY/WX    TMP DP  RH WIND       PRES   REMARKS
LA CROSSE      MOCLDY    74  66  76 CALM      30.01R
SPARTA         PTCLDY    61  61 100 CALM      30.03R
VIROQUA        PTCLDY    66  64  93 E5        30.04R
BOSCOBEL       CLEAR     65  63  93 CALM      30.02R
PRAIRIE DU CHI MOCLDY    69  65  88 CALM      30.01R
PLATTEVILLE    CLEAR     68  66  92 NE6       30.02R
$$

WIZ056-057-062-063-064-067-068-280600-
SOUTH CENTRAL WISCONSIN

CITY           SKY/WX    TMP DP  RH WIND       PRES   REMARKS
REEDSBURG      MOCLDY    63  63 100 CALM      30.02S
BARABOO/DELLS  CLEAR     63  61  92 CALM      30.02S
LONE ROCK      NOT AVBL
MINERAL POINT  CLEAR     68  63  83 E3        30.02F
MADISON        PTCLDY    65  57  75 CALM      30.01S
MIDDLETON      PTCLDY    62  62 100 CALM      30.02S
WATERTOWN      CLEAR     64  60  86 N3        30.01R
MONROE         CLEAR     64  54  68 NE7       30.01S
JANESVILLE     CLEAR     66  54  63 N3        29.99S
$$

WIZ051-052-058>065-066-070>072-280600-
SOUTHEAST WISCONSIN

CITY           SKY/WX    TMP DP  RH WIND       PRES   REMARKS
MILWAUKEE      PTCLDY    69  62  78 N13       29.98R
WAUKESHA       CLEAR     63  54  72 N5        30.02R
MILWAUKEE/TIMM CLEAR     64  54  68 N6        30.01R
RACINE         CLEAR     68  63  84 N12       29.99R
KENOSHA        CLEAR     67  60  78 N8        29.98R
FOND DU LAC    CLEAR     68  53  58 NE9       30.02S
SHEBOYGAN      PTCLDY    64  60  87 N8        30.02R
WEST BEND      CLEAR     63  59  88 CALM      30.02R
JUNEAU         PTCLDY    64  58  79 CALM      30.03R
$$

LSZ147-162-280600-
LAKE SUPERIOR

STATION/POSITION TIME  TEMP    WIND        PRES    WAVE
                       AIR SEA DIR/SP/G            HT/PER
                 (UTC) (F)     (DEG/KT/KT) (MB)    (FT/S)
W MID LAKE BUOY  0350   57 54  350/  4/  6 1018.4R   0
DEVILS ISLAND    0400   63      70/  6/  6 1018.6S
PORT WING        0252   64     100/  2/ 14 1018.6R
SAXON HARBOR     0430   61     190/  3/  4 1018.3R
$$

LMZ867-665-643>646-280600-
LAKE MICHIGAN

STATION/POSITION TIME  TEMP    WIND        PRES    WAVE
                       AIR SEA DIR/SP/G            HT/PER
                 (UTC) (F)     (DEG/KT/KT) (MB)    (FT/S)
CHAMBERS ISLAND  0440   67      10/ 13/ 14 1016.6R
S GREEN BAY BUOY 0430   70 72   20/ 14/ 16 1016.6R
N MID LAKE BUOY  0350   65 66   30/ 12/ 14 1016.8S   2/ 4
NORTHPORT PIER   0440   65     360/  7/  8 1016.9R
KEWAUNEE LAKESHO 0430   65     350/  4/  6 1015.8S
SHEBOYGAN LAKESH 0400   69      10/ 17/ 19 1015.5R
PORT WASHINGTON  0430   69      10/  7/ 11 1016.6R
ATWATER BUOY     0309   70 69   10/ 14/ 17 1015.1R
MILWAUKEE LAKESH 0430   69     360/ 14/ 17   N/A
S MID LAKE BUOY  0350   72 71   30/ 14/ 17 1013.5R   4/ 6
KENOSHA   LAKESH 0400   71      10/ 15/ 17 1014.2
$$

TC  - TEMPERATURE IN CELSIUS
VSB - VISIBILITY IN STATUTE MILES
WCI - WIND CHILL INDEX
HX  - HEAT INDEX




USA.gov is the U.S. government's official web portal to all federal, state and local government web resources and services.